{"data":{"norad_id":66872,"intl_designator":"2025-281AA","name":"STARLINK-36082","alt_names":[],"object_type":"PAYLOAD","status":"ACTIVE","operator":null,"country":"US","launch_date":"2025-12-02","launch_site_code":"AFETR","launch_vehicle":null,"mission":null,"orbit_class":"UNKNOWN","rcs_meters":null,"size_class":null,"mass_kg":null,"dimensions":null,"purposes":["comms"],"wikipedia_slug":null,"has_3d_model":false,"image_url":null,"decayed_at":null,"tle_current":{"epoch":"2026-05-25T01:17:05.812800Z","epoch_age_seconds":70331,"freshness":"FRESH","line1":"1 66872U 25281AA  26145.05353950  .00014489  00000+0  53475-3 0  9997","line2":"2 66872  42.9994 272.2699 0002692 267.6630  92.3914 15.27593781 27852","mean_motion":15.27593781,"eccentricity":0.0002692,"inclination_deg":42.9994,"raan_deg":272.2699,"arg_perigee_deg":267.663,"mean_anomaly_deg":92.3914,"bstar":0.00053475,"rev_number":2785,"period_min":94.265898297736,"perigee_km":481.16081088966,"apogee_km":484.85485126671,"semimajor_km":6861.1448310782,"source":"CELESTRAK","updated_at":"2026-05-25T13:38:21.375562Z"}}}